Preview of NWS' New Version of Forecast
This preview is not operational and should not be used for support decisions.

Regional Weather Roundup (RWR)

Issued by National Weather Service (NWS)

                            
000
ASUS46 KPQR 171310
RWROR 

OREGON REGIONAL WEATHER ROUNDUP
NATIONAL WEATHER SERVICE PORTLAND OR
500 AM PST SUN FEB 17 2019

NOTE: "FAIR" INDICATES FEW OR NO CLOUDS BELOW 12,000 FEET WITH
NO SIGNIFICANT WEATHER AND/OR OBSTRUCTIONS TO VISIBILITY.

ORZ001>013-171400-
NORTHWEST OREGON

  
CITY           SKY/WX    TMP DP  RH WIND       PRES   REMARKS
ASTORIA        MOCLDY    32  32 100 CALM      30.02R                  
TILLAMOOK      FOG       32  32 100 CALM      30.04R VSB 3/4          
NEWPORT        MOCLDY    32  32 100 CALM      30.06R                  
PORTLAND       CLOUDY    37  34  89 CALM      30.04R                  
VANCOUVER WA   CLOUDY    36  34  92 CALM      30.04R                  
SCAPPOOSE      CLOUDY    36  34  92 CALM      30.04R                  
HILLSBORO      CLOUDY    35  33  92 CALM      30.03R                  
AURORA         CLOUDY    36  34  92 SW3       30.04R                  
MCMINNVILLE    CLOUDY    32  32 100 CALM      30.03R FOG              
SALEM          CLOUDY    36  32  85 S6        30.02R                  
CORVALLIS      MOCLDY    31  30  96 S3        30.04R                  
EUGENE         CLOUDY    33  30  88 SE5       30.04R                  
$$

ORZ021-028-171400-
SOUTHWEST OREGON

  
CITY           SKY/WX    TMP DP  RH WIND       PRES   REMARKS
NORTH BEND     MOCLDY    35  34  96 SE7       30.07S                  
BROOKINGS      CLOUDY    33  32  96 SE3       30.06R                  
ROSEBURG       CLOUDY    35  33  92 CALM      30.04S                  
SEXTON SUMMIT  CLOUDY    24  22  91 CALM      29.89S FOG              
GRANTS PASS    FOG       32  30  93 CALM      30.05  VSB<1/4          
MEDFORD        PTCLDY    30  29  96 SE6       30.00S                  
$$

ORZ014>016-041-171400-
COLUMBIA GORGE

  
CITY           SKY/WX    TMP DP  RH WIND       PRES   REMARKS
TROUTDALE      CLOUDY    35  34  96 CALM      30.04R                  
HOOD RIVER     CLOUDY    28  28 100 CALM      30.00R                  
THE DALLES     PTCLDY    26  22  84 E8        30.01R                  
$$

ORZ029>031-041-044-049-050-061>064-502-503-505>511-171400-
EASTERN OREGON

  
CITY           SKY/WX    TMP DP  RH WIND       PRES   REMARKS
MADRAS         NOT AVBL                                               
REDMOND        PTCLDY    23  19  85 S5        29.88R                  
BEND           MOCLDY    25  21  86 SW7       29.88R                  
PRINEVILLE     MOCLDY    18  16  93 CALM      29.88                   
KLAMATH FALLS  CLOUDY    24  20  84 CALM      29.86S                  
LAKEVIEW       CLOUDY    19  18  95 VRB3      29.84R                  
HERMISTON      CLOUDY    31  30  96 W5        29.99R FOG              
PENDLETON      FOG       29  29 100 W3        29.94R VSB 1/4          
JOHN DAY       LGT SNOW  28  27  96 CALM      29.86                   
MEACHAM        LGT SNOW  26  22  84 CALM      29.84R FOG              
LA GRANDE      MOCLDY    27  23  85 NW8       29.89R                  
BAKER CITY     CLOUDY    23  21  92 CALM      29.85R FOG              
BURNS          CLOUDY    20  18  92 W6        29.83S                  
ROME             N/A     27  24  89 W5        29.82R                  
ONTARIO        CLOUDY    34  31  88 NW3       29.89R                  
$$